GFSNE_sfc_rhum_096.txt.gz
RH
72 78 81 80 79 71 86 87 88 90 75 62 60 52 44 46 49 51 46 62 80 82 82 80 76 73 73 73 74 73 66 62 58 58 57 53 53 54
66 69 73 76 72 75 82 81 77 84 89 72 64 58 47 36 44 45 40 64 78 80 82 83 82 81 80 80 79 79 78 76 70 67 64 56 54 54
67 76 80 81 89 91 91 89 94 95 95 84 78 54 52 51 40 45 43 51 58 82 84 84 85 86 86 87 87 87 86 82 79 75 68 60 56 54
86 90 92 92 94 94 95 94 94 91 94 95 87 76 57 69 64 59 54 44 49 64 83 84 83 84 84 85 86 86 88 87 85 83 81 75 66 57
84 90 92 92 96 95 96 95 91 90 93 95 90 71 76 86 84 77 75 64 43 66 73 76 79 79 80 81 82 84 84 86 88 88 87 86 82 75
84 93 92 93 95 93 96 94 93 96 95 96 96 96 95 94 91 92 90 80 68 46 50 59 63 66 73 76 77 78 78 78 84 88 90 89 87 83
95 96 96 95 98 97 96 96 97 99 99 99 99 99 98 98 96 95 95 86 79 63 54 42 38 37 42 67 64 69 75 79 83 84 87 89 90 88
99 98 95 97 97 99 98 98 98 98 99 99 99 99 100 100 99 99 98 97 92 52 48 52 40 41 42 42 57 68 69 77 77 78 81 82 83 86
98 97 94 92 94 93 97 96 98 98 98 97 100 100 100 100 98 95 91 76 69 57 52 51 46 51 46 37 66 68 70 76 79 80 82 85 87 88
93 92 94 95 97 95 92 93 96 98 99 99 100 98 93 81 75 76 82 83 68 51 52 76 52 53 52 46 62 70 74 75 77 80 82 84 87 89
90 90 88 91 94 91 93 95 95 95 97 98 98 98 98 97 94 89 86 78 77 59 54 69 65 60 54 55 48 67 74 76 77 79 82 83 84 85
87 89 92 90 92 93 92 94 94 91 88 89 88 87 84 70 77 71 73 91 86 85 61 86 66 65 80 50 49 48 47 72 77 81 79 84 82 54
85 85 86 93 93 94 95 92 96 92 88 70 71 74 79 80 74 78 85 90 88 82 59 75 73 63 67 63 49 46 48 48 47 52 82 83 81 67
92 91 90 91 87 90 87 90 89 88 85 84 83 82 83 83 83 84 83 83 81 84 68 78 91 78 79 70 55 42 45 52 66 62 64 67 83 81
78 84 86 86 85 92 89 86 87 80 82 85 83 78 76 76 70 76 72 70 70 68 64 76 82 67 64 65 57 54 58 55 56 68 66 66 85 66
74 70 79 85 87 82 84 81 76 74 73 74 75 66 66 65 65 58 62 57 60 58 44 47 52 60 65 56 50 54 47 68 60 68 72 70 66 63
76 68 67 65 64 64 64 72 69 65 71 74 72 71 66 62 62 57 59 55 62 54 47 40 38 43 48 52 64 50 52 61 59 64 86 80 81 70
66 71 78 77 74 68 75 78 71 77 78 62 71 70 70 69 66 61 57 65 67 57 51 42 42 52 50 46 52 57 72 68 62 60 86 88 80 78
67 68 76 82 75 63 62 65 70 66 62 67 70 70 71 69 72 70 66 69 68 59 53 51 53 57 63 73 44 51 68 69 72 83 93 86 93 76
53 59 67 67 61 54 55 62 63 68 70 68 71 75 79 76 77 72 70 76 73 62 53 45 48 51 67 79 78 71 61 77 79 90 95 95 79 83
52 52 60 60 61 59 71 74 77 77 75 78 75 75 79 74 74 70 69 72 74 61 61 54 47 54 52 60 82 76 66 60 83 90 95 91 76 66
66 59 58 61 68 68 74 76 75 74 73 71 76 77 78 77 76 74 74 76 68 67 62 52 46 48 56 60 70 78 70 71 79 92 98 78 73 75
73 68 70 70 69 70 65 72 72 78 72 72 74 73 77 78 70 74 76 72 69 69 63 63 56 52 54 54 68 76 77 85 86 93 87 75 76 75

GFSNE_sfc_rhum_099.txt.gz
RH
81 80 76 72 71 70 70 75 83 90 82 72 72 67 68 77 84 74 66 65 78 80 81 80 77 76 76 76 74 70 65 63 61 61 60 56 54 54
74 74 70 65 65 68 71 76 80 88 94 81 85 80 80 77 83 80 74 74 79 81 81 78 76 75 75 75 75 75 74 73 71 69 67 63 57 54
62 65 66 65 73 79 89 91 90 92 96 85 82 85 88 92 83 80 75 61 57 79 78 76 77 78 81 82 82 82 80 79 78 76 71 66 62 57
63 66 67 72 89 91 88 91 95 92 97 95 87 92 95 91 87 77 66 49 49 67 77 79 82 84 86 88 88 88 88 88 88 85 80 74 68 64
63 66 72 87 89 89 91 96 95 96 95 97 93 91 93 94 89 87 85 76 62 80 86 87 86 85 84 84 84 85 85 86 86 84 84 83 80 75
72 78 79 88 93 96 95 96 96 98 97 98 97 98 98 98 98 98 98 98 98 86 91 89 83 79 80 80 81 81 80 79 81 83 84 86 87 85
85 96 97 97 98 98 97 98 99 99 99 99 99 99 99 99 99 99 99 99 98 96 95 91 83 80 76 73 71 71 73 72 75 78 81 86 92 91
98 96 93 94 94 95 95 96 98 99 99 99 99 99 99 99 99 99 99 100 100 95 98 97 84 82 75 63 63 70 71 78 80 81 84 84 84 85
96 95 92 91 93 89 91 90 92 94 98 98 99 99 100 100 100 100 100 99 98 93 98 95 85 89 71 45 65 68 72 72 73 78 80 81 83 85
91 88 91 94 94 86 86 91 94 96 98 98 99 100 99 99 98 98 99 99 97 96 97 98 82 80 62 54 63 69 67 74 75 79 80 81 83 85
89 88 86 89 89 88 90 91 89 93 92 95 98 98 97 97 97 96 96 96 92 88 90 99 87 84 74 70 62 66 70 73 78 78 79 81 83 85
83 85 89 87 86 87 90 92 92 91 86 84 85 81 86 84 92 84 90 94 91 88 81 95 92 95 91 70 70 65 63 76 78 78 79 78 82 76
78 79 80 84 83 82 86 81 88 78 80 75 74 73 76 79 84 82 88 94 91 87 70 93 87 78 82 86 66 63 62 65 63 64 74 77 81 79
85 78 74 81 81 83 80 83 80 82 79 75 73 74 77 74 79 65 68 75 75 86 79 89 94 89 89 86 74 56 58 60 69 66 67 67 80 85
72 77 68 70 70 85 82 77 78 74 74 73 71 72 66 63 56 60 60 56 56 59 54 61 82 78 83 87 80 71 73 65 61 66 69 70 74 83
74 67 74 75 82 81 68 74 81 76 72 81 75 62 58 60 60 58 65 61 71 69 49 56 62 73 84 76 70 74 64 72 64 64 64 67 72 73
68 61 63 60 58 55 58 59 60 64 71 65 64 63 60 56 59 61 63 59 70 66 61 48 46 50 54 55 67 56 59 64 62 63 62 64 64 89
58 63 71 73 67 56 58 56 54 55 56 55 65 66 68 68 68 65 65 76 78 75 68 55 56 65 60 52 50 59 71 70 70 68 65 75 70 84
61 63 71 71 66 54 53 54 59 60 59 62 66 69 71 68 78 72 71 74 70 61 62 61 63 66 79 89 54 50 78 71 70 75 71 76 87 88
50 58 66 64 58 51 54 60 63 66 70 65 71 75 79 79 78 75 72 81 75 64 60 52 60 64 89 86 80 69 51 71 78 82 78 75 85 98
52 52 59 59 61 59 73 74 75 76 75 78 76 76 81 76 76 71 73 74 78 68 72 64 54 63 60 69 86 77 69 52 60 81 89 92 92 91
65 59 58 61 68 68 74 76 75 74 74 72 76 80 81 79 78 79 82 82 75 72 69 59 52 56 68 74 77 78 70 70 59 62 68 82 95 95
73 68 69 70 69 69 66 73 72 77 72 73 76 75 82 83 75 76 80 76 73 76 70 74 66 58 63 63 72 78 77 74 78 82 89 98 98 87

GFSNE_sfc_rhum_102.txt.gz
RH
89 89 83 84 94 91 88 86 90 94 88 79 82 70 74 74 76 76 73 73 84 84 84 82 77 75 74 74 75 75 74 72 71 71 70 68 63 58
88 88 87 86 88 90 86 86 87 90 94 77 76 74 84 78 77 81 78 82 89 89 88 86 83 78 76 76 74 75 76 75 74 73 68 65 57 56
81 84 83 82 87 87 88 89 91 93 95 84 79 82 88 91 80 81 83 85 86 93 92 88 86 84 80 81 81 81 79 78 75 73 71 64 59 58
79 82 81 80 86 86 88 92 94 92 96 95 90 91 92 92 88 89 87 78 80 82 90 91 88 86 88 92 92 92 92 90 87 86 82 77 70 70
75 78 79 86 89 95 97 96 94 95 98 98 96 90 96 99 98 98 96 96 80 94 95 92 89 91 92 93 93 93 93 92 93 92 92 88 84 77
83 95 96 97 98 98 98 98 98 99 98 98 98 98 99 97 98 99 98 98 97 91 96 96 94 92 91 92 93 92 93 94 93 92 91 90 86 83
95 91 94 94 95 96 93 97 97 99 99 99 99 98 99 98 99 99 99 99 98 99 98 97 96 95 95 93 92 91 92 92 92 92 89 85 81 83
96 96 94 94 93 93 93 94 97 98 99 99 99 99 99 100 99 100 100 99 99 98 99 99 99 98 96 88 85 92 92 91 89 85 84 83 85 87
95 94 92 91 92 89 92 91 94 95 99 98 99 99 99 99 99 99 99 99 99 99 99 98 97 98 93 77 83 84 87 89 86 82 83 85 84 86
94 92 93 94 94 92 90 92 96 96 96 97 98 99 99 99 99 99 99 98 97 96 98 98 93 92 91 86 81 81 76 80 78 79 81 80 82 81
92 92 89 90 86 87 91 94 94 94 89 87 90 90 89 90 92 96 95 95 93 90 96 98 98 97 97 96 88 75 75 78 82 76 76 80 82 83
87 85 84 85 85 88 86 88 90 91 90 86 82 79 77 81 90 98 98 95 93 93 96 93 90 95 94 91 83 74 76 86 92 99 100 97 86 80
86 82 83 82 81 78 78 87 89 89 85 82 81 83 85 86 85 77 81 91 93 90 73 86 89 84 84 82 71 67 66 67 70 80 74 72 77 84
84 84 86 80 78 78 82 79 78 79 80 82 85 89 82 80 78 76 76 79 81 80 72 82 96 92 90 87 82 66 69 69 75 74 79 80 81 75
85 78 74 72 74 85 79 75 80 82 86 85 83 75 69 67 62 65 64 63 64 63 50 60 67 69 90 94 94 87 84 77 72 78 95 95 91 84
78 74 74 72 73 72 69 67 74 74 78 78 76 72 68 67 69 64 71 66 72 71 55 61 64 68 82 86 84 87 77 80 70 68 67 71 70 73
81 75 77 73 70 67 66 63 66 67 74 74 78 76 71 68 71 69 69 69 77 72 67 60 56 57 62 62 73 62 65 69 76 89 88 83 70 72
72 82 87 87 81 71 75 75 72 75 74 74 79 77 80 80 77 74 72 79 82 75 69 60 59 67 65 60 57 79 88 83 70 66 68 87 89 87
78 82 87 87 82 73 75 76 81 78 74 76 81 84 82 80 81 78 77 77 78 71 66 65 72 83 89 90 62 51 70 67 68 77 77 84 93 82
67 78 84 83 76 71 77 80 82 85 85 82 85 87 88 86 86 82 78 83 83 77 72 65 66 69 83 89 87 78 60 72 84 91 83 79 80 75
69 72 80 82 83 81 92 92 92 90 92 91 90 87 89 87 84 82 82 81 80 73 77 73 64 65 66 75 83 76 72 58 59 72 82 91 92 82
84 80 79 83 91 89 92 94 90 90 88 88 91 90 89 87 86 86 85 87 80 77 74 66 61 61 66 72 78 77 74 72 64 65 66 73 91 94
91 88 90 93 90 89 86 90 90 94 90 91 90 89 88 90 84 85 85 80 78 80 75 74 68 65 67 66 73 77 82 83 76 77 81 77 87 88

GFSNE_sfc_rhum_105.txt.gz
RH
88 90 88 89 93 91 91 89 88 94 87 90 91 79 73 78 76 75 71 76 87 89 88 85 85 85 84 84 81 82 84 84 80 79 82 81 78 79
84 86 86 84 90 95 92 91 92 90 93 81 82 85 90 85 85 88 87 86 86 87 89 89 87 85 87 86 83 86 84 84 84 84 82 82 78 74
89 91 88 88 93 95 96 92 94 94 96 83 84 82 93 96 94 91 86 86 86 91 92 91 90 90 89 89 91 91 91 91 91 89 88 83 80 77
86 87 88 89 93 90 93 94 95 93 96 94 85 90 99 97 96 94 90 81 81 84 92 94 95 95 94 94 95 96 96 95 95 92 89 82 80 78
87 90 93 96 97 98 98 98 98 98 99 99 99 98 99 98 98 97 96 94 88 94 94 95 92 92 92 94 95 95 96 97 98 96 95 94 92 87
95 93 91 92 94 96 94 96 96 99 99 99 99 99 98 96 96 99 96 96 95 87 95 98 95 92 92 93 94 94 95 95 95 96 97 97 97 95
93 90 93 92 93 94 92 96 96 97 97 98 99 98 99 98 99 98 98 97 95 98 96 95 96 96 97 96 94 94 95 95 96 97 97 97 96 95
97 96 95 93 94 96 96 96 96 97 98 99 98 98 98 98 98 98 98 98 98 98 97 96 93 96 96 96 91 93 93 94 96 97 97 97 98 98
95 94 94 97 99 97 99 92 92 92 98 98 98 99 99 98 97 95 94 92 97 91 96 91 96 95 88 76 83 87 91 90 92 96 97 97 97 98
95 95 95 97 99 100 97 95 95 95 95 95 98 98 97 90 99 97 99 96 90 91 88 97 90 87 80 74 76 82 94 97 100 100 99 98 97 98
94 95 95 97 91 78 85 86 89 92 80 78 79 82 92 91 80 85 91 91 90 80 90 86 87 80 75 78 84 68 60 62 62 64 86 96 97 99
95 94 88 82 78 77 87 90 94 96 87 84 86 81 75 74 76 82 88 95 92 92 87 94 82 84 88 79 71 68 69 65 63 59 62 75 78 96
82 84 83 79 76 82 86 85 83 82 84 85 78 75 73 73 74 75 77 87 88 86 70 74 82 73 79 77 66 67 70 74 73 71 71 67 73 83
88 93 87 76 77 77 74 71 74 79 81 80 78 77 78 76 71 70 68 69 67 68 59 74 90 80 83 85 80 67 70 79 90 82 81 68 65 75
76 71 67 66 67 70 65 66 76 79 81 86 85 82 74 67 59 64 61 59 61 59 45 62 74 73 74 78 75 70 72 66 71 74 78 81 77 72
75 74 71 71 72 70 70 72 76 78 81 86 86 77 69 71 72 67 74 69 76 73 52 58 59 66 74 68 67 72 68 92 88 82 68 70 73 77
77 74 75 74 75 75 74 73 75 76 84 85 84 81 76 73 74 72 71 73 81 73 66 55 50 56 64 66 79 74 68 70 68 69 68 74 72 77
75 83 88 89 86 83 87 86 82 85 80 78 86 84 87 84 82 78 77 82 85 78 73 64 66 71 65 56 52 65 76 80 77 73 73 85 82 77
82 86 91 94 94 86 87 88 91 87 82 84 90 90 88 87 87 82 80 83 85 78 75 71 72 77 86 90 61 53 74 72 74 79 77 83 90 82
79 90 94 95 89 85 88 88 88 90 91 89 95 96 97 90 88 86 86 90 88 82 72 65 70 73 89 91 86 75 59 73 77 84 85 81 78 70
83 87 93 93 92 89 97 96 100 98 100 99 97 96 99 92 91 89 89 88 86 77 81 77 67 68 66 72 84 77 71 60 65 77 88 94 92 88
93 90 91 92 96 96 98 100 100 100 99 98 100 100 100 92 92 92 91 90 85 84 78 69 63 65 74 77 85 83 77 74 68 66 67 72 89 96
98 96 96 97 97 99 96 99 100 100 99 100 100 94 98 95 90 90 88 88 86 83 81 82 75 70 72 71 81 89 86 80 79 86 83 71 81 84

GFSNE_sfc_rhum_108.txt.gz
RH
93 93 92 92 94 93 90 87 84 88 86 90 95 87 76 73 71 71 68 76 84 86 87 87 84 83 83 84 83 80 80 84 87 91 90 87 86 86
89 93 94 89 93 96 91 91 92 87 89 71 80 90 91 85 85 86 86 90 92 92 91 91 90 89 88 87 86 85 84 85 87 88 88 92 90 90
81 82 81 83 89 89 93 92 93 94 94 84 81 81 94 93 95 96 98 98 95 96 96 96 95 94 93 92 92 91 91 90 90 90 90 90 88 88
86 89 90 88 92 90 97 96 96 94 96 96 90 96 99 97 94 94 88 75 82 89 96 95 94 94 95 97 97 96 95 95 96 95 94 93 93 91
86 90 92 95 97 98 97 98 98 95 99 99 99 97 98 93 94 91 89 89 79 81 90 96 95 94 94 94 94 95 96 96 96 97 96 95 94 94
93 92 92 94 96 95 93 96 95 97 96 97 98 98 96 94 95 97 95 93 92 86 84 87 86 83 86 90 92 92 94 95 95 96 96 97 97 96
93 91 93 92 93 93 91 95 94 95 96 96 98 99 98 98 98 97 98 93 92 96 89 88 86 86 82 79 81 83 88 89 89 92 94 95 96 97
97 96 95 94 97 98 94 95 96 96 98 98 98 98 98 98 95 93 91 94 96 90 89 87 94 95 87 70 68 74 84 97 99 99 98 98 97 97
95 96 97 98 98 94 98 96 97 98 98 95 98 99 97 98 95 90 92 97 98 94 90 91 94 92 68 53 60 67 66 62 62 65 74 82 94 98
96 96 96 98 99 98 96 96 97 92 92 95 98 96 92 86 89 90 95 94 86 87 88 100 86 80 70 65 60 65 60 58 59 61 62 59 68 89
95 95 95 96 93 90 94 91 83 86 82 77 76 72 69 69 74 86 89 90 90 79 87 86 84 81 71 76 75 57 54 59 61 65 66 64 62 65
94 96 95 96 93 91 88 86 93 95 88 79 75 70 68 68 70 79 84 92 88 92 84 80 70 75 82 69 62 63 68 66 60 63 65 66 65 75
93 94 93 86 78 76 77 82 83 78 76 74 73 74 72 70 71 71 74 88 89 84 61 78 84 74 80 76 62 60 66 61 60 59 57 63 61 64
93 94 89 79 72 73 71 66 67 76 80 81 80 78 78 74 69 67 63 66 66 69 59 75 98 79 78 79 72 53 60 64 73 77 87 70 62 62
84 76 75 71 71 73 68 68 78 83 85 87 86 83 76 67 57 62 58 56 59 54 43 56 67 66 74 82 82 76 79 72 73 69 72 70 72 72
74 72 75 77 77 75 72 73 79 81 83 88 90 82 72 73 73 68 77 72 77 74 49 54 59 68 79 73 68 72 62 77 66 70 71 74 73 73
84 81 80 76 77 76 77 77 79 77 85 89 89 82 78 76 79 75 74 75 85 80 73 62 52 56 60 60 74 63 67 71 72 73 72 76 71 74
81 87 92 92 90 87 90 90 85 87 84 82 91 88 89 88 84 79 79 87 90 82 78 69 65 73 68 58 56 65 76 77 72 69 70 82 79 73
85 90 95 96 95 87 88 89 93 91 84 89 94 94 91 85 87 86 86 87 87 81 77 72 76 80 89 91 61 52 75 77 77 81 78 82 88 80
83 92 95 95 89 86 87 90 90 95 96 95 98 99 99 90 92 90 89 92 90 82 77 70 73 75 90 93 92 79 65 78 91 91 87 80 77 69
84 88 94 94 95 92 100 100 100 100 100 100 100 98 100 97 94 91 91 89 88 83 86 80 71 73 72 77 88 79 72 64 70 89 92 94 90 85
94 92 94 96 99 99 100 100 100 100 100 100 100 100 100 100 97 95 93 94 91 88 84 76 67 68 74 78 88 85 79 75 69 70 74 83 95 97
100 97 99 98 99 100 98 100 100 100 100 100 100 100 100 100 94 94 94 92 89 89 86 83 74 70 74 73 81 90 89 87 89 89 86 78 75 73

GFSNE_sfc_rhum_114.txt.gz
RH
95 97 95 98 98 97 96 92 92 94 90 80 84 83 84 84 86 85 84 92 94 94 95 94 92 91 91 89 88 87 86 87 88 89 89 90 90 89
96 96 97 99 98 99 99 98 97 95 98 84 88 86 94 93 90 91 92 90 93 94 93 90 87 86 87 87 87 86 85 84 84 84 85 86 87 87
95 95 95 96 98 98 99 98 98 98 98 90 92 95 94 93 88 88 84 87 92 85 83 82 81 82 81 81 79 77 77 80 84 86 85 86 87 87
98 98 97 98 98 97 98 98 98 96 96 95 99 97 95 93 92 92 82 71 87 82 80 70 75 77 78 76 71 68 76 80 77 79 81 79 81 85
97 97 97 98 98 99 99 99 98 97 98 99 99 95 96 94 92 89 88 86 78 72 69 65 72 74 70 66 65 63 61 65 69 69 69 70 70 71
96 96 95 96 98 97 96 96 96 96 94 96 96 97 96 92 91 91 89 84 89 67 65 60 68 70 65 60 56 57 57 62 68 65 64 65 65 67
95 94 95 94 93 93 94 96 94 95 95 94 96 93 95 94 94 90 82 84 89 79 73 68 76 75 67 59 52 56 61 65 61 60 60 61 62 62
97 95 92 91 91 93 93 93 93 94 94 94 94 95 96 94 89 88 84 83 84 80 79 72 76 71 59 41 54 59 64 62 61 60 58 59 60 59
95 95 94 92 90 91 91 90 90 88 89 91 95 94 92 90 82 82 81 74 66 71 75 73 71 69 48 38 59 62 61 60 58 56 57 58 58 58
96 95 96 96 95 92 92 93 92 89 87 83 86 84 80 71 72 72 73 70 61 69 66 86 55 58 55 50 60 59 59 54 56 58 58 61 60 60
95 95 94 96 92 86 89 89 86 84 72 69 67 65 65 65 65 70 76 79 76 52 71 74 67 66 52 50 50 55 55 55 60 58 62 62 62 62
94 96 92 94 90 86 87 87 90 80 71 68 59 56 54 56 67 63 70 84 77 79 68 78 64 67 76 48 47 46 47 57 59 63 63 64 62 64
90 92 93 89 87 85 83 85 88 81 80 73 68 67 61 57 57 57 63 75 80 71 51 65 68 60 65 64 51 50 52 53 54 55 62 63 63 60
93 94 94 88 87 87 88 89 89 89 83 78 71 69 70 65 57 56 53 53 52 58 48 60 87 74 79 82 69 48 53 55 64 60 60 61 64 65
90 91 87 86 87 89 87 86 86 87 87 87 79 71 66 61 51 56 54 51 56 52 44 50 62 62 71 81 78 70 72 59 54 59 65 65 65 65
91 89 91 92 90 88 87 87 87 85 82 82 78 67 61 67 68 64 71 72 79 73 49 49 53 61 77 70 66 72 61 77 61 63 62 64 63 63
92 90 91 89 87 84 83 79 78 75 82 79 77 72 68 69 71 71 72 73 80 74 70 60 49 53 60 62 78 63 64 67 63 67 70 75 65 63
85 89 93 92 89 82 84 83 79 79 76 75 81 79 82 82 80 77 75 81 84 78 75 66 67 76 68 52 56 62 75 78 75 71 72 88 79 64
90 90 93 93 91 82 81 82 86 83 76 80 86 87 86 82 85 82 81 80 83 76 74 74 77 82 90 94 62 54 85 81 80 83 76 84 90 77
83 89 92 90 82 78 79 82 84 88 88 84 91 93 96 89 89 86 84 92 88 82 77 67 69 73 92 94 94 79 72 92 90 89 84 78 76 70
82 82 86 88 88 85 94 95 96 96 96 97 96 94 100 94 90 87 87 91 92 79 84 78 68 77 72 78 91 83 75 69 84 95 92 93 87 81
87 83 82 87 91 91 96 98 97 98 97 95 100 100 100 96 94 94 93 94 88 86 83 73 65 66 73 78 88 88 83 79 73 72 95 96 94 93
92 89 93 92 91 93 90 97 97 100 98 99 100 97 100 99 92 92 93 89 88 88 84 82 73 68 72 72 82 86 85 81 80 83 92 85 85 96

GFSNE_sfc_rhum_117.txt.gz
RH
83 84 82 84 85 87 85 85 89 91 80 70 79 85 92 92 96 89 89 93 92 90 88 87 87 87 87 88 87 86 85 84 84 83 83 82 82 83
87 85 90 92 92 96 96 94 94 93 95 75 92 98 92 86 90 89 88 87 86 84 83 83 82 81 81 78 77 78 77 80 79 80 82 82 82 83
89 89 92 94 97 98 98 98 98 97 97 90 97 96 94 94 89 86 86 90 90 76 74 77 81 77 75 73 70 69 73 73 70 72 72 73 74 75
92 92 94 94 94 93 96 96 96 96 96 96 98 97 96 93 91 89 81 83 85 76 66 71 72 68 64 61 60 58 58 57 62 68 67 68 69 69
89 90 89 93 95 96 96 97 98 99 99 99 99 96 96 93 90 86 86 87 73 72 61 58 67 65 62 57 52 54 57 61 66 63 63 63 63 64
94 93 93 95 95 99 99 99 98 98 97 97 97 97 95 95 91 86 84 83 87 59 56 52 73 63 57 51 46 55 60 63 63 62 61 60 58 59
98 96 98 97 97 98 98 98 96 96 96 96 97 94 94 91 89 83 82 83 90 68 58 42 50 43 39 36 36 55 63 62 62 60 57 57 58 59
97 96 95 95 94 94 92 92 94 94 96 93 94 95 96 89 84 80 77 71 68 53 49 45 52 39 33 28 48 59 61 60 56 56 57 58 59 61
96 95 94 91 90 88 89 88 87 86 89 90 95 91 88 82 74 69 65 55 46 51 55 49 37 40 29 25 43 56 56 53 56 57 59 60 60 62
95 94 95 95 91 90 90 92 91 87 84 79 83 80 73 64 58 61 62 59 42 46 47 66 36 35 32 28 42 54 55 56 57 59 61 60 62 63
94 93 93 94 87 83 88 90 88 87 77 75 73 75 77 78 71 70 62 61 58 35 50 58 43 37 34 33 28 42 49 51 55 58 59 62 62 62
95 95 90 92 82 78 81 82 87 74 64 67 73 75 67 72 75 64 66 74 60 55 46 62 43 42 58 33 33 32 32 43 48 53 57 60 60 49
90 93 92 86 83 78 77 79 81 77 83 73 66 64 58 49 50 51 55 65 64 50 33 51 54 45 49 47 36 34 33 34 36 40 50 53 58 59
93 93 90 84 83 82 82 84 84 78 76 71 68 70 67 51 42 41 41 42 42 47 36 51 72 58 59 60 48 31 36 41 45 42 42 52 59 59
89 89 87 85 86 87 84 83 83 83 85 81 69 56 48 44 40 47 44 42 46 42 36 41 51 48 56 62 55 50 60 47 41 47 52 51 54 56
93 90 89 90 88 86 86 84 74 66 65 65 61 50 47 52 54 51 56 54 62 56 37 38 42 51 64 53 49 56 47 63 49 52 54 57 53 51
91 90 91 87 82 79 74 63 58 57 66 65 62 57 54 52 56 58 58 57 63 54 49 41 36 41 48 50 64 50 52 57 55 61 63 66 56 51
83 82 87 83 78 75 75 70 64 64 62 63 69 66 68 67 67 64 63 67 69 59 53 45 46 59 56 49 47 54 72 72 66 62 64 80 68 59
80 80 86 82 76 67 67 66 71 69 66 67 71 74 74 69 72 69 68 68 68 57 52 51 58 64 77 88 54 52 70 70 75 77 70 78 85 74
67 74 78 75 66 60 60 62 64 71 71 69 76 79 82 76 77 72 70 79 73 61 53 46 52 62 82 88 89 75 71 85 84 85 81 77 65 67
63 65 71 68 66 64 78 79 81 82 82 84 81 78 85 77 76 72 74 79 76 60 63 57 52 63 59 68 86 78 74 66 73 88 90 83 73 63
68 65 66 68 74 76 83 84 84 83 82 78 85 85 85 81 80 79 80 80 70 68 62 54 48 52 62 69 75 81 74 74 68 67 73 84 93 89
77 72 76 78 77 78 72 80 77 84 80 80 80 78 85 83 76 77 78 74 71 73 66 65 57 54 62 61 72 78 80 75 70 70 73 76 78 80

GFSNE_sfc_rhum_120.txt.gz
RH
71 68 54 48 52 50 56 61 64 78 68 74 82 81 93 90 90 85 82 88 87 87 86 84 84 81 80 79 79 79 79 78 77 77 76 76 76 76
66 69 64 66 75 78 75 70 69 72 79 70 96 97 92 88 90 86 86 81 81 82 84 83 80 79 77 72 69 67 67 65 65 69 68 69 70 71
69 68 71 79 88 89 90 86 85 84 92 99 96 96 95 95 91 92 90 88 86 77 79 76 71 68 65 61 57 56 58 58 60 68 68 67 67 67
72 75 76 83 87 91 92 85 94 93 93 93 97 97 96 95 93 92 90 84 84 81 65 67 65 63 59 54 53 57 59 64 66 65 65 65 66 65
76 76 81 86 92 94 93 94 95 97 97 98 99 96 98 95 95 91 91 88 74 68 52 65 69 61 55 49 45 53 60 64 65 64 62 61 60 60
88 87 90 91 89 94 94 93 96 99 99 98 98 98 96 96 91 91 90 89 81 53 48 43 55 46 41 39 36 50 59 62 61 57 56 57 58 60
98 98 99 99 99 99 99 99 99 98 98 97 97 95 95 93 90 79 72 79 81 61 47 40 45 32 29 30 30 44 58 56 55 55 57 58 59 61
97 97 96 96 96 96 96 96 97 97 98 96 94 95 96 92 86 83 81 74 74 51 43 39 33 27 26 24 39 46 54 56 56 57 58 59 62 62
97 96 95 94 92 92 93 92 91 91 91 91 94 89 86 79 72 73 65 53 53 43 48 46 31 32 26 23 38 44 50 54 54 56 57 60 60 61
96 97 96 96 95 93 90 91 90 85 81 76 81 78 69 58 58 59 61 55 42 38 43 73 39 33 30 28 35 38 44 48 50 52 55 55 58 61
95 96 95 95 90 84 87 89 86 85 75 75 76 76 74 73 63 62 62 63 58 32 40 50 38 33 30 30 24 37 42 44 47 48 50 54 57 58
95 96 89 88 81 78 79 78 85 81 71 66 69 67 57 55 54 47 50 62 50 50 43 53 37 36 51 31 30 30 31 39 44 47 51 51 53 46
90 91 88 78 75 72 69 72 76 74 74 69 61 57 49 46 43 41 40 50 52 39 34 46 49 39 42 40 33 33 33 38 38 39 46 50 56 54
92 91 85 77 77 77 79 79 78 77 78 75 72 58 45 40 36 35 36 36 36 40 32 46 69 51 51 55 49 37 40 41 43 40 44 49 54 55
87 85 80 80 84 85 81 82 82 80 81 75 55 42 38 37 34 41 38 37 41 39 30 36 45 42 50 58 54 50 55 43 39 48 51 49 50 48
91 88 89 93 89 86 83 81 78 71 63 58 52 41 39 45 47 44 48 46 56 49 30 32 36 42 57 51 47 54 45 60 50 53 53 54 49 48
92 93 92 80 71 66 60 54 51 52 62 59 56 50 47 47 48 50 50 50 56 44 39 32 30 36 44 46 61 47 52 57 56 58 63 63 54 54
88 90 79 72 64 58 62 61 57 58 58 58 63 59 59 60 58 57 56 61 61 50 43 37 41 55 53 48 47 52 69 69 63 63 63 76 68 56
79 82 89 82 71 59 59 62 66 63 58 59 64 67 65 61 64 62 62 63 62 49 43 43 51 60 72 84 52 49 64 66 72 73 67 71 91 63
62 70 74 69 58 51 52 55 57 63 63 62 70 73 74 69 70 64 63 74 67 54 45 39 46 56 76 84 86 72 67 78 78 82 78 76 65 65
53 56 60 56 55 53 71 74 77 77 76 77 74 71 80 69 69 66 67 71 69 53 54 48 44 56 55 65 82 75 69 61 68 83 80 88 73 61
60 55 55 60 68 70 79 80 80 78 77 71 80 80 81 75 72 71 72 72 63 60 54 46 42 47 57 63 69 75 70 73 64 67 74 82 81 85
70 64 70 72 72 72 66 72 69 77 72 72 72 72 80 77 69 70 71 66 63 66 59 57 51 50 57 56 66 72 76 71 65 64 72 74 75 77

GFSNE_sfc_rhum_123.txt.gz
RH
88 70 61 54 52 47 44 47 56 71 68 74 82 86 85 87 87 84 82 87 86 87 85 82 80 78 76 74 72 68 65 62 63 66 67 67 66 66
81 69 65 56 55 52 50 52 56 63 76 74 97 96 90 88 88 87 84 84 86 80 76 73 70 66 63 59 57 58 59 59 62 67 65 66 66 66
73 71 70 66 63 65 70 70 79 75 78 96 93 95 95 96 94 92 90 90 90 81 75 70 67 62 57 55 56 60 61 64 66 66 65 65 64 63
78 74 71 67 77 78 80 83 80 78 84 94 96 96 96 95 96 95 89 80 85 78 73 70 66 58 53 49 50 57 61 64 67 63 59 59 61 63
78 72 67 68 80 84 84 88 87 96 93 96 98 97 98 97 98 96 93 88 75 65 52 69 59 51 46 40 46 53 59 61 59 57 57 59 60 62
87 79 72 77 80 86 89 93 98 99 99 98 98 98 97 97 97 94 94 91 84 49 48 45 55 52 42 33 44 45 56 58 55 56 59 61 61 62
93 95 94 94 98 98 96 98 98 99 99 98 98 98 97 97 95 92 87 87 77 64 53 52 54 50 43 38 34 39 50 57 61 60 58 59 60 62
98 98 98 98 98 98 97 98 100 99 100 96 96 95 97 96 91 90 91 92 87 51 51 54 42 40 36 28 38 42 45 49 51 54 55 56 57 58
98 98 98 99 97 95 96 94 94 94 96 94 96 95 95 87 80 80 75 69 61 45 54 52 39 34 29 27 33 38 41 46 48 50 52 54 56 59
99 100 97 98 97 95 94 94 94 90 86 79 84 82 76 68 68 70 74 68 61 46 40 78 39 34 32 28 28 35 43 45 46 48 51 54 56 57
97 97 96 96 94 92 91 91 89 90 81 83 84 79 70 65 64 73 82 80 52 37 42 51 36 34 33 32 28 39 43 43 46 50 52 53 53 56
95 96 94 94 92 86 83 83 90 88 81 72 65 64 63 58 58 55 58 62 60 50 46 54 38 36 54 35 37 39 41 50 52 49 49 50 54 52
91 92 89 79 75 72 69 70 71 68 70 60 56 55 50 44 42 39 42 56 52 36 38 50 53 44 46 45 40 40 44 47 44 43 53 53 55 54
92 87 81 76 75 75 74 73 72 74 76 75 62 56 51 44 38 37 38 38 35 39 32 46 70 53 54 62 54 42 46 46 46 51 53 54 59 60
82 77 77 79 78 78 77 78 80 83 84 76 59 42 38 37 36 39 38 40 42 40 30 34 44 42 51 61 58 53 60 47 47 56 58 60 61 61
85 87 87 86 86 89 87 85 78 64 57 54 47 40 39 44 46 44 48 49 55 48 31 32 34 40 56 53 50 55 48 63 56 56 58 66 58 59
89 89 89 87 90 85 69 55 50 49 54 52 50 46 44 46 49 52 52 51 54 44 39 32 31 37 46 48 61 51 53 61 59 62 64 69 61 61
91 93 94 90 72 56 60 58 56 57 55 56 60 57 59 61 59 57 56 60 61 49 42 37 41 55 54 51 47 53 68 69 65 63 64 77 72 66
93 94 89 82 75 62 59 58 63 61 57 60 65 66 64 62 64 61 62 62 62 49 42 42 49 58 71 83 55 57 65 67 77 76 71 75 84 76
86 84 75 67 56 50 52 56 58 62 63 63 71 72 72 68 68 62 63 72 67 52 46 40 45 54 73 83 83 73 66 83 81 89 82 75 75 72
56 59 65 60 59 58 74 76 77 76 75 76 73 72 77 65 67 64 65 72 69 53 55 49 44 64 54 65 83 76 69 67 73 82 82 85 80 70
64 57 55 61 70 72 80 82 80 77 76 72 78 78 77 69 69 68 70 69 61 60 54 47 43 47 56 63 70 75 71 73 70 69 74 79 92 90
74 66 71 73 72 72 66 70 69 75 71 71 71 72 76 73 66 66 67 64 61 63 59 59 51 50 59 61 68 76 78 78 68 68 70 73 82 81